Location: Brivio
(45.7333°N, 9.4500°E)
Time: 08:31:13
(UTC+00:00)

Cosmos 1953 - Pass Details

Date: 18 October 2019
Orbit: 539 x 559 km, 82.5° (Epoch: 11 November)

Event Time Altitude Azimuth Distance (km) Brightness Sun altitude
Rises 17:18:33 0° 197° (SSW) 2,731 6.2 -8.9°
Reaches altitude 10° 17:20:44 10° 202° (SSW) 1,842 5.4 -9.2°
Maximum altitude 17:24:44 56° 281° (WNW) 667 3.1 -9.9°
Drops below altitude 10° 17:28:46 10° 1° (N) 1,856 5.0 -10.6°
Sets 17:30:59 0° 6° (N) 2,755 5.8 -11.0°
